Weather in Mamkheg

Russia / Republic of Adygea     45°00′25″N   40°13′15″E
temp.,
°C
wind,
m/s
gust,
m/s
humid.,
%
clouds,
%
prec.,
mm/h
press.,
hPa
HPBL,
m
19 may, wed
wed1900:00+15ese5129299 0.1 1008224
03:00+14ssw3693100 0.5 1008134
06:00+13wnw5109797 4.2 1009331
09:00+13w61198100 11.7 1012740
12:00+19wsw813650 3.4 10131810
15:00+19wsw1016650 3.5 10141943
18:00+17wsw714684 0.0 10141296
21:00+16wsw715530 0.0 1015672
20 may, thu
thu2000:00+13wsw410691 0.0 1016215
03:00+10ssw338372 0.0 101532
06:00+10sse34735 0.0 101578
09:00+17ese466786 0.0 1015451
12:00+22ese455689 0.0 10141002
15:00+24e44510 0.0 10131125
18:00+22ene48725 0.0 1012232
21:00+17e4118565 0.0 1011185
21 may, fri
fri2100:00+15e4108396 0.0 1010170
03:00+14ese368525 0.0 100975
06:00+15se33715 0.0 100948
09:00+22e47634 0.0 1008267
12:00+27e57574 0.0 1007572
15:00+29e33565 0.0 1006714
18:00+28ne23753 0.0 100675
21:00+21ese349115 0.0 100661
22 may, sat
sat2200:00+20nw2292100 0.0 100512
03:00+18ese229289 0.0 100514
06:00+19se229099 0.0 100643
09:00+22nnw2386100 0.0 1005168
12:00+26n34715 0.0 1007554
15:00+27n466760 0.0 1006788
18:00+25n3680100 0.0 1007368
21:00+21sse1191100 0.0 100715
23 may, sun
sun2300:00+20wnw3896100 2.9 1006191
03:00+18wsw489596 2.9 1006194
06:00+18sw479599 0.0 1007305
09:00+20w4588100 0.0 1007491
12:00+25wnw337238 0.0 1006922
15:00+27nw336832 0.0 10051135
18:00+25wsw4678100 0.1 1007212
21:00+20ssw3591100 0.1 1009123